[[{"header":{"parameterUnit":"m.s-1","parameterCategory":1,"la1":30.2991,"la2":30.254,"lo1":-89.0895,"lo2":-89.0444,"dy":0.0017,"dx":0.0017,"nx":28,"ny":28,"refTime":"2025-09-16T21:00:00:Z","depth":0,"parameterNumber":2,"parameterNumberName":"U-component_of_WINDS"},"data":[0,0,0,0,0,0,0,0,0,0,0,0,0,0,0,0,0,0,0,0,0,0,0,0,0,0,0,0,0,0,0,0,0,0,0,0,0,0,0,0,0,0,0,0,0,0,0,0,0,0,0,0,0,0,0,0,0,0,-0.6929,-0.6928,0,-0.6885,-0.6885,-0.6884,-0.6841,-0.6841,-0.684,-0.684,-0.6794,-0.6793,-0.6793,0,0,0,0,0,0,0,0,0,0,0,0,0,-0.6975,-0.6974,-0.6929,-0.6928,-0.6928,-0.6885,-0.6885,-0.6884,-0.6842,-0.6841,-0.684,-0.684,-0.6794,-0.6794,-0.6793,0,0,0,0,0,0,0,0,0,0,0,0,0,-0.6945,-0.6974,-0.6929,-0.6901,-0.6899,-0.6885,-0.6885,-0.6884,-0.6842,-0.6841,-0.684,-0.6839,-0.6795,-0.6794,-0.6793,-0.6803,0,0,-0.6789,-0.6789,0,0,0,0,0,0,0,0,-0.6947,-0.6944,-0.6906,-0.6903,-0.69,-0.6868,-0.6884,-0.6857,-0.6842,-0.6863,-0.684,-0.6839,-0.6819,-0.6816,-0.681,-0.6801,-0.6799,-0.6789,-0.6789,-0.6788,-0.6788,0,0,0,0,0,0,0,-0.6949,-0.6945,-0.6912,-0.6906,-0.6902,-0.6891,-0.6886,-0.6879,-0.6846,-0.6861,-0.6858,-0.6854,-0.6818,-0.6811,-0.6808,-0.6798,-0.6789,-0.6788,-0.6788,-0.6787,-0.6796,-0.6796,0,0,0,0,0,0,-0.6956,-0.6947,-0.6913,-0.691,-0.6922,-0.6891,-0.6885,-0.6879,-0.6846,-0.6841,-0.6854,-0.6852,-0.6813,-0.681,-0.6807,-0.6817,-0.6788,-0.6787,-0.6787,-0.6795,-0.6796,-0.6797,0,0,0,0,0,0,-0.6957,-0.6953,-0.6915,-0.6928,-0.6922,-0.6891,-0.6884,-0.6879,-0.6872,-0.6841,-0.6835,-0.6854,-0.6812,-0.6808,-0.6804,-0.6815,-0.6787,-0.6786,-0.6794,-0.6795,-0.6796,-0.6838,0,0,0,0,0,0,-0.6958,-0.6954,-0.6957,-0.6928,-0.6922,-0.6914,-0.6885,-0.6878,-0.687,-0.6867,-0.6839,-0.6833,-0.6811,-0.6806,-0.6803,-0.6813,-0.6785,-0.6793,-0.6794,-0.6796,-0.6835,-0.684,-0.6844,0,0,0,0,0,-0.696,-0.697,-0.6958,-0.6954,-0.6926,-0.6914,-0.691,-0.6885,-0.6871,-0.6875,-0.6855,-0.6834,-0.6814,-0.6806,-0.6803,-0.6812,-0.6792,-0.6794,-0.6796,-0.6833,-0.6839,-0.6844,0,0,0,0,0,0,-0.7001,-0.6966,-0.6952,-0.6953,-0.6937,-0.6907,-0.6911,-0.6892,-0.6879,-0.6876,-0.6845,-0.6839,-0.6839,-0.6825,-0.6817,-0.682,-0.68,-0.6801,-0.683,-0.6835,-0.684,-0.6843,-0.6784,0,0,0,0,0,-0.701,-0.7004,-0.6974,-0.6978,-0.697,-0.6942,-0.6936,-0.6918,-0.69,-0.6893,-0.6873,-0.6856,-0.6845,-0.6839,-0.6828,-0.6833,-0.6826,-0.6837,-0.6842,-0.6846,-0.6848,-0.6849,-0.6854,-0.6803,-0.6803,-0.6803,0,0,-0.7029,-0.7009,-0.7007,-0.6986,-0.6971,-0.6965,-0.6937,-0.6931,-0.6927,-0.6892,-0.6887,-0.6872,-0.6851,-0.6852,-0.6851,-0.684,-0.686,-0.6848,-0.6852,-0.6851,-0.6852,-0.6857,-0.6861,-0.6804,-0.6804,-0.6804,0,0,-0.7061,-0.7045,-0.7047,-0.7033,-0.7012,-0.6993,-0.6993,-0.6966,-0.6955,-0.695,-0.6924,-0.6917,-0.69,-0.6887,-0.6877,-0.6904,-0.6885,-0.6901,-0.6926,-0.6928,-0.6932,-0.6935,-0.6945,-0.6949,-0.6903,-0.6903,-0.6903,0,-0.7088,-0.7078,-0.7051,-0.7047,-0.7039,-0.7007,-0.7009,-0.6996,-0.6972,-0.6967,-0.6955,-0.6933,-0.6917,-0.6914,-0.6921,-0.6914,-0.6914,-0.6905,-0.6934,-0.6937,-0.6939,-0.6949,-0.6953,-0.6905,-0.6905,-0.6905,-0.6905,0,-0.7112,-0.7106,-0.711,-0.7088,-0.7079,-0.7079,-0.7051,-0.7046,-0.7028,-0.7011,-0.7006,-0.6985,-0.697,-0.6967,-0.695,-0.6962,-0.6956,-0.6939,-0.6919,-0.6947,-0.6955,-0.6959,-0.6909,-0.6908,-0.6907,-0.6907,0,0,-0.7169,-0.7132,-0.7134,-0.7124,-0.7097,-0.7092,-0.709,-0.7075,-0.7071,-0.7055,-0.7053,-0.7039,-0.7024,-0.7013,-0.6994,-0.6996,-0.7019,-0.6979,-0.6978,-0.6988,-0.7032,-0.7046,-0.705,-0.7006,-0.7007,-0.7007,-0.7034,0,-0.7197,-0.7192,-0.7167,-0.7169,-0.7163,-0.7133,-0.7131,-0.7114,-0.7098,-0.709,-0.7071,-0.7063,-0.7042,-0.7036,-0.7036,-0.7017,-0.7028,-0.7014,-0.7004,-0.7004,-0.7011,-0.7054,-0.7068,-0.7095,-0.7037,-0.7038,-0.7038,0,-0.7229,-0.7216,-0.7217,-0.7192,-0.7188,-0.7187,-0.7171,-0.7164,-0.7145,-0.7133,-0.7122,-0.71,-0.7096,-0.7076,-0.707,-0.7062,-0.7056,-0.7045,-0.7046,-0.7044,-0.7023,-0.7055,-0.7103,-0.7107,-0.7043,-0.7042,-0.7042,0,-0.7271,-0.7254,-0.7253,-0.7245,-0.7214,-0.7214,-0.7202,-0.7182,-0.7175,-0.7161,-0.7156,-0.7141,-0.7134,-0.7123,-0.7099,-0.7086,-0.7096,-0.7074,-0.7086,-0.7086,-0.709,-0.709,-0.7138,-0.7085,-0.7085,-0.7085,-0.7085,0,-0.7306,-0.7308,-0.7271,-0.7271,-0.7273,-0.7244,-0.7246,-0.7231,-0.7213,-0.7209,-0.7181,-0.7178,-0.7145,-0.7138,-0.7118,-0.7117,-0.7113,-0.7103,-0.7098,-0.7106,-0.7108,-0.7103,-0.71,-0.7086,-0.7085,-0.7085,-0.7085,0,-0.7354,-0.7329,-0.7326,-0.7298,-0.7291,-0.7293,-0.7269,-0.7267,-0.7249,-0.7244,-0.7241,-0.7212,-0.7202,-0.7176,-0.7159,-0.7146,-0.715,-0.714,-0.7157,-0.7154,-0.7167,-0.7167,-0.7215,-0.722,-0.7163,-0.7163,-0.7164,0,-0.7378,-0.7379,-0.7351,-0.7346,-0.7335,-0.7328,-0.732,-0.7292,-0.7285,-0.7263,-0.7264,-0.7252,-0.7241,-0.7227,-0.7204,-0.7191,-0.7181,-0.7199,-0.7179,-0.7187,-0.7182,-0.7183,-0.7183,-0.7203,-0.7204,-0.7205,-0.7205,0,-0.7423,-0.7411,-0.7402,-0.7388,-0.738,-0.7368,-0.7354,-0.7351,-0.732,-0.7313,-0.7303,-0.7295,-0.7278,-0.7266,-0.725,-0.7236,-0.7216,-0.7212,-0.7214,-0.7222,-0.7232,-0.7228,-0.7169,-0.7211,-0.721,-0.721,-0.7209,-0.7209,-0.7461,-0.7461,-0.7441,-0.7431,-0.7418,-0.7405,-0.7403,-0.7384,-0.7375,-0.7359,-0.7343,-0.7334,-0.7315,-0.7291,-0.7279,-0.7272,-0.7261,-0.7264,-0.7265,-0.7266,-0.727,-0.7233,-0.7269,-0.7268,-0.7268,-0.7268,-0.7268,0,-0.7506,-0.7491,-0.7483,-0.7464,-0.7457,-0.7438,-0.7422,-0.7417,-0.741,-0.7393,-0.7383,-0.7372,-0.736,-0.7337,-0.7323,-0.7322,-0.7312,-0.732,-0.732,-0.7317,-0.728,-0.728,-0.7328,-0.7328,-0.7328,-0.7328,-0.7328,-0.7328,-0.7528,-0.7527,-0.7512,-0.7504,-0.749,-0.7482,-0.7474,-0.7463,-0.745,-0.7438,-0.7429,-0.7413,-0.7394,-0.7379,-0.7368,-0.7361,-0.7358,-0.7368,-0.7359,-0.7325,-0.732,-0.7314,-0.7314,-0.7368,-0.7368,-0.7396,-0.7397,-0.7397]},{"header":{"parameterUnit":"m.s-1","parameterCategory":1,"la1":30.2991,"la2":30.254,"lo1":-89.0895,"lo2":-89.0444,"dy":0.0017,"dx":0.0017,"nx":28,"ny":28,"refTime":"2025-09-16T21:00:00:Z","depth":0,"parameterNumber":3,"parameterNumberName":"V-component_of_WINDS"},"data":[0,0,0,0,0,0,0,0,0,0,0,0,0,0,0,0,0,0,0,0,0,0,0,0,0,0,0,0,0,0,0,0,0,0,0,0,0,0,0,0,0,0,0,0,0,0,0,0,0,0,0,0,0,0,0,0,0,0,3.599,3.599,0,3.5992,3.5992,3.5992,3.5949,3.5948,3.5947,3.5946,3.5948,3.5949,3.595,0,0,0,0,0,0,0,0,0,0,0,0,0,3.5947,3.5948,3.599,3.599,3.599,3.5992,3.5992,3.5992,3.5949,3.5948,3.5947,3.5945,3.5948,3.5949,3.5951,0,0,0,0,0,0,0,0,0,0,0,0,0,3.5959,3.5948,3.5989,3.5969,3.5967,3.5992,3.5992,3.5992,3.595,3.5948,3.5946,3.5945,3.5947,3.5949,3.5951,3.5996,0,0,3.5956,3.5957,0,0,0,0,0,0,0,0,3.5958,3.596,3.5972,3.597,3.5968,3.5968,3.5978,3.5994,3.595,3.5956,3.5946,3.5944,3.5956,3.5957,3.5962,3.5996,3.5997,3.5956,3.5957,3.5958,3.5958,0,0,0,0,0,0,0,3.5957,3.596,3.599,3.5972,3.597,3.5959,3.5958,3.5981,3.5966,3.5955,3.5952,3.5953,3.5955,3.596,3.5961,3.5997,3.5956,3.5958,3.5959,3.5959,3.6067,3.6069,0,0,0,0,0,0,3.596,3.596,3.599,3.5991,3.5959,3.5961,3.5961,3.597,3.5966,3.5963,3.5955,3.5951,3.5958,3.5959,3.5961,3.6012,3.5958,3.596,3.5961,3.6065,3.6067,3.6069,0,0,0,0,0,0,3.5959,3.5963,3.599,3.5974,3.5977,3.5963,3.5974,3.5971,3.5976,3.5965,3.5962,3.5962,3.5957,3.5959,3.5987,3.6012,3.596,3.5962,3.6063,3.6066,3.6068,3.6116,0,0,0,0,0,0,3.5958,3.5963,3.598,3.5975,3.5978,3.6017,3.5976,3.5972,3.5979,3.5974,3.5972,3.5969,3.5955,3.5985,3.5989,3.6013,3.5963,3.6061,3.6064,3.6067,3.6112,3.612,3.6127,0,0,0,0,0,3.5956,3.5994,3.5981,3.5985,3.5999,3.6018,3.602,3.6003,3.5981,3.5998,3.5991,3.5969,3.6009,3.5988,3.5993,3.6018,3.6059,3.6063,3.6067,3.6109,3.6119,3.6127,0,0,0,0,0,0,3.6002,3.5993,3.5979,3.6016,3.6018,3.6011,3.6032,3.6014,3.6023,3.6018,3.5997,3.5997,3.6028,3.6026,3.6003,3.6061,3.603,3.6035,3.606,3.6069,3.6077,3.6075,3.5965,0,0,0,0,0,3.6017,3.6033,3.6024,3.6057,3.6059,3.6046,3.6053,3.604,3.6042,3.6042,3.6037,3.604,3.6052,3.6061,3.6073,3.6113,3.611,3.6132,3.6139,3.6145,3.6149,3.6168,3.6177,3.6083,3.6083,3.6083,0,0,3.6047,3.6043,3.6055,3.6066,3.6067,3.6083,3.6047,3.6066,3.6078,3.6045,3.6071,3.6068,3.6069,3.6103,3.6118,3.6102,3.6175,3.615,3.6155,3.6156,3.6173,3.6182,3.619,3.6086,3.6085,3.6085,0,0,3.6109,3.6109,3.6136,3.6137,3.6138,3.6128,3.6135,3.6131,3.6127,3.6153,3.6128,3.6142,3.6165,3.6166,3.617,3.6232,3.6212,3.6237,3.6274,3.6293,3.63,3.6307,3.6327,3.6335,3.6241,3.6242,3.6242,0,3.6146,3.617,3.6152,3.6173,3.6178,3.6149,3.6175,3.6177,3.6182,3.6186,3.6169,3.6196,3.6195,3.6228,3.6243,3.6248,3.6253,3.6236,3.6301,3.6307,3.6313,3.6332,3.634,3.6244,3.6244,3.6244,3.6243,0,3.6214,3.6231,3.6253,3.6257,3.6265,3.6289,3.6274,3.6284,3.627,3.6263,3.6289,3.6287,3.6296,3.6303,3.6291,3.6334,3.6324,3.6305,3.6273,3.6325,3.6342,3.6349,3.6248,3.6247,3.6246,3.6246,0,0,3.6304,3.6298,3.6306,3.6307,3.6305,3.6318,3.634,3.6349,3.6357,3.6362,3.6379,3.6399,3.638,3.6384,3.6372,3.6389,3.6436,3.6366,3.6366,3.6377,3.6481,3.6494,3.6503,3.6423,3.6425,3.6426,3.648,0,3.6362,3.6399,3.6383,3.6421,3.6436,3.6409,3.6428,3.6429,3.6423,3.6434,3.6427,3.644,3.6416,3.6418,3.6434,3.6427,3.6456,3.6423,3.6437,3.6438,3.6435,3.6512,3.6526,3.6578,3.6487,3.6488,3.6489,0,3.6435,3.6442,3.6481,3.6475,3.6481,3.6498,3.6504,3.6516,3.6517,3.6511,3.6516,3.6499,3.6519,3.649,3.6517,3.6495,3.65,3.6498,3.6499,3.6498,3.6465,3.6511,3.6594,3.6601,3.65,3.6499,3.6498,0,3.6494,3.6513,3.6538,3.654,3.6535,3.6547,3.6546,3.6545,3.6551,3.6557,3.656,3.6569,3.6573,3.658,3.6566,3.6546,3.6594,3.6564,3.6589,3.6589,3.6598,3.6597,3.6681,3.6606,3.6606,3.6606,3.6606,0,3.6559,3.6584,3.6564,3.6579,3.6605,3.6588,3.6614,3.661,3.6609,3.6622,3.6601,3.6614,3.6596,3.6607,3.6596,3.6619,3.6622,3.6617,3.6613,3.6617,3.6618,3.6619,3.6614,3.6608,3.6607,3.6607,3.6607,0,3.6628,3.6616,3.6641,3.6635,3.6633,3.6653,3.6647,3.666,3.6653,3.667,3.6673,3.6661,3.6673,3.666,3.6672,3.6665,3.6695,3.6688,3.6695,3.6691,3.6716,3.6713,3.6801,3.6811,3.6732,3.6733,3.6733,0,3.6669,3.6687,3.6682,3.6689,3.6689,3.6702,3.6707,3.6691,3.6698,3.6699,3.6712,3.6723,3.673,3.675,3.6742,3.6751,3.6742,3.6772,3.6743,3.6746,3.6739,3.6737,3.6738,3.6777,3.6778,3.6779,3.678,0,3.6743,3.6736,3.6745,3.6752,3.6759,3.6764,3.6767,3.6774,3.6757,3.6766,3.6777,3.6783,3.6794,3.6804,3.681,3.6809,3.6791,3.679,3.6795,3.6798,3.68,3.6797,3.6708,3.6787,3.6786,3.6786,3.6785,3.6785,3.6798,3.6811,3.681,3.682,3.6821,3.6824,3.6835,3.6829,3.6839,3.6846,3.6836,3.685,3.685,3.6856,3.6856,3.6867,3.6854,3.6863,3.6864,3.6866,3.6869,3.6801,3.6868,3.6868,3.6868,3.6868,3.6868,0,3.6868,3.6865,3.6875,3.688,3.6888,3.6871,3.6873,3.6881,3.6893,3.6894,3.6902,3.6915,3.6924,3.6917,3.6925,3.6935,3.6927,3.6937,3.6935,3.6934,3.6881,3.6874,3.6943,3.6943,3.6943,3.6943,3.6943,3.6943,3.6905,3.6927,3.692,3.6942,3.6939,3.6952,3.6955,3.6957,3.6957,3.6973,3.698,3.6976,3.6973,3.698,3.6988,3.6986,3.6989,3.7002,3.6996,3.6946,3.6938,3.6931,3.6924,3.7003,3.7003,3.7048,3.7049,3.7049]}]]